This is the latest recevied weather packets stored in our database for station/object 7M1JBF-11. If no packets are shown the sender has not sent any weather packets the latest 1 day(s).
| Time | Temp. | Humidity | Pressure | Rain* | Wind** | Luminosity | Snow |
|---|---|---|---|---|---|---|---|
| 1778050881 | 21.67° C | 100% | 1017.9 hPa | 0 mm | - | - | - |
| 1778049076 | 21.67° C | 100% | 1017.9 hPa | 0 mm | - | - | - |
| 1778047873 | 21.67° C | 100% | 1018.3 hPa | 0 mm | - | - | - |
| 1778047272 | 21.67° C | 100% | 1018.2 hPa | 0 mm | - | - | - |
| 1778044265 | 21.67° C | 100% | 1018.8 hPa | 0 mm | - | - | - |
| 1778043062 | 21.67° C | 100% | 1019.2 hPa | 0 mm | - | - | - |
| 1778042461 | 21.67° C | 100% | 1019.2 hPa | 0 mm | - | - | - |
| 1778041258 | 21.67° C | 100% | 1019.5 hPa | 0 mm | - | - | - |
| 1778039454 | 22.22° C | 100% | 1019.8 hPa | 0 mm | - | - | - |
| 1778038853 | 22.22° C | 100% | 1019.8 hPa | 0 mm | - | - | - |
| 1778038251 | 22.22° C | 100% | 1019.8 hPa | 0 mm | - | - | - |
| 1778037650 | 22.22° C | 100% | 1019.7 hPa | 0 mm | - | - | - |
| 1778037049 | 22.22° C | 100% | 1020.1 hPa | 0 mm | - | - | - |
| 1778035846 | 22.78° C | 100% | 1020.2 hPa | 0 mm | - | - | - |
| 1778034643 | 22.78° C | 100% | 1020.3 hPa | 0 mm | - | - | - |
| 1778034042 | 22.78° C | 100% | 1020.7 hPa | 0 mm | - | - | - |
| 1778033440 | 22.78° C | 100% | 1020.8 hPa | 0 mm | - | - | - |
| 1778032839 | 23.33° C | 100% | 1020.9 hPa | 0 mm | - | - | - |
| 1778031035 | 24.44° C | 100% | 1021.5 hPa | 0 mm | - | - | - |
| 1778028028 | 20.56° C | 100% | 1022 hPa | 0 mm | - | - | - |
| 1778027427 | 20.56° C | 100% | 1022.2 hPa | 0 mm | - | - | - |
| 1778023819 | 20° C | 100% | 1022.3 hPa | 0 mm | - | - | - |
| 1778022616 | 19.44° C | 100% | 1022.3 hPa | 0 mm | - | - | - |
| 1778019008 | 17.78° C | 100% | 1022.5 hPa | 0 mm | - | - | - |
| 1778017204 | 17.22° C | 100% | 1022.3 hPa | 0 mm | - | - | - |
* Rain since midnight (hover to see other rain measurements)
** Current wind speed in m/s (hover to see current wind gust speed)